SCP
0 0 0 0 0 0 0 0 0 0 0 0 0 0 0 0 0 0 0 0 0 0 -0 0 0 0 0 0 0 0 0 0 0 0 0 0 0 0 0 0 0 0 0
0 0 0 0 0 0 0 0 0 0 0 0 0 0 0 0 0 0 0 0 0 0 0 0 0 0 0 0 0 0 0 0 0 0 0 0 0 0 0 0 0 0 0
0 0 0 0 0 0 0 0 0 0 0 0 0 0 0 0 0 0 0 0 0 0 0 0 0 0 0 0 0 0 0 0 0 0 0 0 0 0 0 0 0 0 0
0 0 0 0 0 0 0 0 0 0 0 0 0 0 0 0 0 0 0 0 0 0 0 0 0 0 0 0 0 0 0 0 0 0 0 0 0 0 0 0 0 0 0
0 0 0 0 0 0 0 0 0 0 0 0 0 0 0 0 0 0 0 0 0 0 0 0 0 0 0 0 0 0 0 0 0 0 0 0 0 0 0 0 0 0 0
0 0 0 0 0 0 0 0 0 0 0 0 0 0 0 0 0 0 0 0 0 0 0 0 0 0 0 0 0 0 0 0 0 0 0 0 0 0 0 0 0 0 0
0 0 0 0 0 0 0 0 0 0 0 0 0 0 0 0 0 0 0 0 0 0 0 0 0 0 0 0 0 0 0 0 0 0 0 0 0 0 0 0 0 0 0
0 0 0 0 0 0 0 0 0 0 0 0 0 0 0 0 0 0 0 0 0 0 0 0 0 0 0 0 0 0 0 0 0 0 0 0 0 0 0 0 0 0 0
0 0 0 0 0 0 0 0 0 0 0 0 0 0 0 0 0 0 0 0 0 0 0 0 0 0 0 0 0 0 0 0 0 0 0 0 0 0 0 0 0 0 0
0 0 0 0 0 0 0 0 0 0 0 0 0 0 0 0 0 0 0 0 0 0 0 0 0 0 0 0 0 0 0 0 0 0 0 0 0 0 0 0 0 0 0
0 0 0 0 0 0 0 0 0 0 0 0 0 0 0 0 0 0 0 0 0 0 0 0 0 0 0 0 0 0 0 0 0 0 0 0 0 0 0 0 0 0 0
0 0 0 0 0 0 0 0 0 0 0 0 0 0 0 0 0 0 0 0 0 0 0 0 0 0 0 0 0 0 0 0 0 0 0 0 0 0 0 0 0 0 0
0 0 0 0 0 0 0 0 0 0 0 0 0 0 0 0 0 0 0 0 0 0 0 0 0 0 0 0 0 0 0 0 0 0 0 0 0 0 0 0 0 0 0
0 0 0 0 0 0 0 0 0 0 0 0 0 0 0 0 0 0 0 0 0 0 0 0 0 0 0 0 0 0 0 0 0 0 0 0 0 0 0 0 0 0 0
0 0 0 0 0 0 0 0 0 0 0 0 0 0 0 0 0 0 0 0 0 0 0 0 0 0 0 0 0 0 0 0 0 0 0 0 0 0 0 0 0 0 0
0 0 0 0 0 0 0 0 0 0 0 0 0 0 0 0 0 0 0 0 0 0 0 0 0 0 0 0 0 0 0 0 0 0 0 0 0 0 0 0 0 0 0
0 0 0 0 0 0 0 0 0 0 0 0 0 0 0 0 0 0 0 0 0 0 0 0 0 0 0 0 0 0 0 0 0 0 0 0 0 0 0 0 0 0 0
0 0 0 0 0 0 0 0 0 0 0 0 0 0 0 0 0 0 0 0 0 0 0 0 0 0 0 0 0 0 0 0 0 0 0 0 0 0 0 0 0 0 0
0 0 0 0 0 0 0 0 0 0 0 0 0 0 0 0 0 0 0 0 0 0 0 0 0 0 0 0 0 0 0 0 0 0 0 0 0 0 0 0 0 0 0
0 0 0 0 0 0 0 0 0 0 0 0 0 0 0 0 0 0 0 0 0 0 0 0 0 0 0 0 0 0 0 0 0 0 0 0 0 0 0 0 0 0 0
0 0 0 0 0 0 0 0 0 0 0 0 0 0 0 0 0 0 0 0 0 0 0 0 0 0 0 0 0 0 0 0 0 0 0 0 0 0 0 0 0 0 0
0 0 0 0 0 0 0 0 0 0 0 0 0 0 0 0 0 0 0 0 0 0 0 0 0 0 0 0 0 0 0 0 0 0 0 0 0 0 0 0 0 0 0
0 0 0 0 0 0 0 0 0 0 0 0 0 0 0 0 0 0 0 0 0 0 0 0 0 0 0 0 0 0 0 0 0 0 0 0 0 0 0 0 0 0 0
0 0 0 0 0 0 0 0 0 0 0 0 0 0 0 0 0 0 0 0 0 0 0 0 0 0 0 0 0 0 0 0 0 0 0 0 0 0 0 0 0 0 0
0 0 0 0 0 0 0 0 0 0 0 0 0 0 0 0 0 0 0 0 0 0 0 0 0 0 0 0 0 0 0 0 0 0 0 0 0 0 0 0 0 0 0
0 0 0 0 0 0 0 0 0 0 0 0 0 0 0 0 0 0 0 0 0 0 0 0 0 0 0 0 0 0 0 0 0 0 0 0 0 0 0 0 0 0 0
Wind_Speed
4 4 4 4 4 4 3 4 4 4 5 5 5 5 6 6 5 5 5 5 5 5 5 5 5 5 4 4 3 4 4 5 8 7 4 4 5 6 6 5 5 5 5
4 4 4 4 4 4 4 5 4 5 5 5 5 5 5 6 5 5 6 6 6 6 6 5 6 5 5 5 4 5 4 5 6 10 7 5 5 5 6 6 5 5 5
4 4 4 5 5 5 5 5 5 5 5 5 5 5 5 6 6 5 5 5 5 5 5 6 6 6 6 5 5 5 5 5 5 6 7 5 4 4 5 5 5 5 5
4 4 4 5 4 4 5 5 5 5 5 5 6 5 5 5 6 5 5 5 5 5 5 5 5 5 6 6 6 6 6 6 5 6 6 5 5 4 3 4 6 4 5
4 4 4 4 4 4 4 4 5 5 5 5 5 5 6 5 5 6 5 5 5 6 5 5 6 6 7 7 6 6 6 5 5 5 6 5 5 5 5 4 6 6 6
3 4 4 4 4 4 4 4 4 5 5 5 5 6 6 5 9 10 8 6 6 6 7 6 6 6 8 9 10 10 9 7 7 6 6 6 7 6 6 6 6 6 6
3 3 4 4 5 5 5 5 5 5 5 5 5 6 6 8 11 11 11 7 6 6 6 7 6 7 7 7 9 10 9 9 9 7 8 8 7 6 7 7 7 7 8
3 3 4 4 5 5 5 5 5 5 5 5 5 6 6 7 11 12 11 7 6 6 6 6 7 8 8 9 8 8 7 7 8 6 6 7 7 6 6 7 8 8 7
3 4 4 4 5 5 5 5 5 5 5 5 5 5 6 8 11 12 11 6 6 7 6 6 7 8 11 13 9 9 9 7 8 9 9 9 9 9 7 4 4 4 5
4 4 4 4 5 5 5 6 5 5 5 6 6 5 6 7 11 13 12 5 6 6 6 6 7 10 13 13 8 8 9 8 7 6 6 7 6 6 7 4 4 4 4
3 4 4 4 5 5 5 5 5 5 5 6 6 6 6 7 10 12 12 6 6 7 6 6 6 13 14 13 11 8 10 10 7 6 5 4 4 3 3 4 4 4 4
3 4 4 5 4 4 5 5 5 5 5 6 6 6 5 5 7 10 12 11 11 8 7 6 7 13 14 14 10 10 12 9 4 4 4 4 4 4 4 4 4 4 4
3 4 4 5 5 4 4 5 5 4 4 5 5 6 6 5 6 11 12 13 13 8 7 10 12 14 13 9 10 11 7 4 4 4 4 5 4 4 4 4 4 4 4
3 4 4 4 4 4 4 4 4 4 4 5 5 6 6 6 6 6 6 7 8 8 7 7 11 12 9 8 7 6 4 3 4 4 5 5 4 3 3 3 3 3 3
4 4 4 4 4 4 4 4 5 5 6 6 6 6 6 7 9 14 11 7 6 6 6 4 5 5 4 4 4 3 3 3 4 4 4 4 4 3 3 2 2 2 2
3 3 3 3 3 4 4 5 8 8 11 12 11 10 8 11 16 15 16 14 14 12 7 4 5 5 5 5 5 4 4 4 4 4 4 4 4 3 3 3 2 2 3
4 4 3 3 3 4 4 5 6 7 9 10 11 12 12 14 15 15 15 13 11 10 4 4 5 5 5 5 5 5 5 4 4 4 4 3 3 3 3 3 3 2 3
3 4 3 3 3 4 4 4 5 6 7 6 8 12 13 14 14 14 13 9 6 5 3 4 5 5 5 5 5 5 5 4 3 3 3 3 3 3 3 3 3 3 3
3 3 3 3 3 3 4 4 4 5 6 6 6 8 10 12 12 11 9 3 4 5 4 4 5 5 5 5 5 5 5 4 4 3 3 3 3 2 3 3 3 4 3
3 4 3 3 3 3 3 4 4 4 5 5 6 6 6 5 5 5 4 3 4 4 5 5 4 4 5 5 4 4 4 4 4 4 3 3 3 3 3 4 3 3 3
3 3 3 3 3 3 3 4 4 4 5 5 6 7 10 5 5 5 5 4 4 5 5 5 5 5 5 4 4 5 5 5 4 4 3 3 3 3 3 3 3 3 3
2 2 2 3 3 3 4 4 4 4 5 6 6 6 9 5 4 5 5 5 4 4 4 5 5 4 4 4 5 5 5 5 4 3 3 3 2 3 2 2 2 2 2
2 3 3 3 3 4 4 3 4 4 5 5 5 5 5 4 4 5 5 5 5 5 4 4 5 5 4 4 4 5 5 5 4 3 3 3 3 2 2 2 3 2 2
3 3 3 3 3 3 4 4 4 4 5 5 5 5 5 5 5 5 5 5 5 5 4 4 5 6 7 6 5 4 4 5 4 3 4 4 3 3 2 2 3 3 3
2 3 3 3 3 4 4 4 4 4 4 4 4 5 5 5 5 5 5 5 5 5 6 5 5 5 7 8 7 6 7 8 6 3 3 3 3 3 3 3 3 3 3
3 3 3 3 3 4 4 4 4 4 4 4 4 5 5 5 5 5 5 4 5 5 6 5 6 7 8 7 7 8 8 8 6 5 3 2 3 3 3 3 3 3 3
Wind_Direction
15 14 14 6 5 10 12 3 356 352 352 351 347 346 345 343 343 342 336 334 336 331 327 324 319 313 308 306 299 292 288 284 281 290 289 294 293 293 298 292 287 287 291
7 11 12 9 8 10 6 1 358 356 355 352 351 351 347 344 343 339 333 334 332 329 327 327 325 323 322 318 311 302 295 290 284 291 296 297 295 300 301 296 296 294 290
5 9 9 9 9 5 358 356 356 355 352 353 354 353 348 344 342 338 337 338 335 330 329 328 326 331 328 323 317 310 305 303 294 291 297 300 301 306 307 303 300 296 297
0 4 5 0 358 356 351 351 352 349 349 349 348 343 337 335 332 328 331 332 328 325 325 323 322 322 318 318 313 308 304 302 298 293 293 298 301 304 298 302 303 301 297
356 356 355 351 351 352 352 351 351 350 346 342 340 336 333 330 329 327 327 326 324 322 321 319 318 320 321 316 312 313 309 300 297 294 294 299 304 316 311 308 302 306 293
348 344 342 346 349 348 346 345 347 345 341 340 335 332 331 328 330 329 325 322 322 320 319 318 316 314 318 318 317 314 310 305 302 296 293 295 299 304 305 306 308 310 299
340 339 341 343 341 338 337 341 340 336 335 333 328 328 324 322 328 328 328 323 318 315 315 315 316 317 313 311 313 313 310 308 301 292 290 291 294 297 299 298 298 295 288
331 333 335 336 331 331 333 332 330 327 324 320 319 317 316 318 325 327 328 320 310 308 306 306 307 310 312 314 309 308 307 307 301 293 286 290 295 297 289 288 290 291 286
319 320 324 323 321 322 322 321 318 317 314 310 311 315 315 316 322 324 324 312 308 308 306 307 306 304 312 318 313 307 306 305 308 304 302 304 305 307 311 304 296 295 292
306 312 316 316 312 311 311 312 312 310 308 311 311 313 310 308 315 320 321 310 308 307 307 306 307 310 313 316 311 306 304 305 308 309 308 308 306 307 314 297 284 282 288
312 314 315 315 312 306 305 307 309 309 311 309 307 307 304 303 310 317 320 316 309 307 306 307 307 314 315 316 315 306 303 306 302 299 298 299 301 303 308 309 299 282 279
311 309 309 311 309 309 307 307 309 309 307 305 305 305 303 304 308 314 318 317 313 303 299 299 302 310 313 315 316 313 316 316 308 307 305 306 305 306 309 308 303 297 285
302 298 301 307 309 310 307 306 310 308 301 301 303 304 307 309 310 315 313 312 311 304 294 298 304 308 312 313 315 319 322 318 310 305 302 298 298 299 307 310 310 312 306
282 289 294 300 305 309 304 298 294 294 294 296 299 301 304 306 306 305 302 304 306 305 302 304 307 308 309 310 310 314 313 305 299 294 293 295 301 303 302 308 311 325 323
273 280 287 289 292 297 295 288 288 278 276 287 288 290 297 300 302 309 311 306 303 300 310 308 305 306 304 302 302 302 301 301 297 294 293 294 297 300 303 315 311 320 305
266 274 280 285 287 289 295 301 294 291 296 294 293 295 294 298 307 312 314 315 316 319 321 305 301 299 298 300 299 299 295 292 293 292 290 290 291 294 303 312 311 304 299
252 267 277 281 284 289 294 298 305 312 306 304 306 309 309 311 314 316 316 318 325 333 325 299 294 295 294 293 293 291 290 289 290 288 287 287 287 291 295 298 300 302 299
251 259 263 270 276 279 281 285 289 297 307 309 314 314 315 317 317 316 319 329 328 329 298 289 288 289 288 288 289 291 293 294 291 287 286 283 280 280 284 286 287 288 293
243 251 256 264 269 272 277 281 283 285 289 297 306 312 318 319 321 323 331 327 301 297 291 285 285 287 288 288 288 288 288 288 285 282 278 275 271 270 274 278 281 283 287
241 250 256 260 267 270 273 276 281 284 288 291 294 300 312 316 318 323 327 303 289 287 287 286 287 285 285 285 286 289 291 285 281 273 269 268 265 260 264 270 272 278 280
235 248 249 257 258 262 267 268 272 276 279 284 285 291 303 308 304 303 303 297 289 287 289 289 290 289 286 285 285 285 283 280 275 268 266 265 263 264 267 268 269 269 275
227 238 245 250 258 262 266 267 269 272 275 280 290 299 305 305 294 294 293 291 287 283 282 283 284 282 281 281 280 281 280 276 268 264 265 267 264 263 265 269 273 278 280
225 236 248 255 257 264 268 267 267 270 274 278 285 293 296 291 289 289 290 292 293 292 291 287 288 291 291 286 280 276 276 274 268 258 258 262 260 254 248 251 256 267 273
224 232 241 252 256 258 263 268 269 270 273 277 281 283 285 287 288 289 290 293 295 295 294 292 289 291 296 298 292 286 283 280 271 257 245 246 254 253 243 244 251 252 260
223 233 241 247 251 256 263 268 270 271 273 276 279 282 284 286 287 289 292 294 296 296 297 296 293 292 294 297 297 295 294 294 290 271 248 239 242 240 234 239 246 253 257
228 237 244 248 251 255 259 266 270 273 275 278 279 281 284 285 287 290 295 298 300 300 301 299 297 297 299 298 296 298 298 297 292 278 256 238 236 239 228 235 238 244 250